Temp_Advection
nan nan nan nan nan nan nan nan nan nan nan nan nan nan nan nan nan nan nan nan nan nan nan nan nan nan nan nan nan nan nan nan nan nan nan nan nan nan nan nan nan nan nan nan
nan -0 -0 -0 -0 -0 -0 -0 -0 -1 -1 -1 -0 -0 -0 0 -0 -0 -0 -0 -0 0 0 -0 -0 -0 0 -0 -0 -0 -0 -0 0 -0 0 -0 -0 0 -0 -0 -0 -0 -0 nan
nan -0 -0 -0 -0 -0 -0 -0 -0 -1 -2 -0 0 -0 -0 -0 -0 -0 -0 -0 0 -0 -0 0 -0 -0 -0 0 -0 -0 -0 -0 -0 -0 -0 -0 0 -0 0 -0 -0 -0 -0 nan
nan -0 -0 -0 -0 -0 -0 -1 -1 0 -0 -1 -0 0 -0 -0 -0 -0 -0 -0 -0 0 -0 -0 -0 -0 -0 -0 -0 -0 -0 -0 -0 0 -0 0 -0 -0 -0 -0 -0 -0 -0 nan
nan -0 -0 -0 -0 -0 -0 -0 -0 -1 -0 0 0 0 -0 -0 -0 -0 -0 -0 -0 0 0 -0 -0 -1 -0 -0 -0 -0 -0 0 -0 -0 -0 0 -0 -0 -0 -0 -0 -0 -0 nan
nan -0 -0 -0 -0 -0 -0 -0 -0 -1 -0 0 0 -0 -0 0 -0 0 0 -0 -0 -0 -0 0 0 -0 -0 -0 -0 -0 -0 -0 -0 0 0 0 0 -0 -0 -0 -0 -0 -0 nan
nan -0 -0 -0 -0 -0 -1 -0 -0 -0 -0 -0 -0 0 -0 -0 -0 -0 -0 -0 -0 -0 0 0 -0 0 -0 -0 -0 -0 -0 -0 -0 -0 0 0 -0 0 -0 -0 -0 -0 -0 nan
nan -0 -0 -0 -0 -0 -0 -0 -0 -0 -0 -0 0 0 -0 0 0 0 0 -0 0 -0 0 -0 -0 -0 0 0 0 0 -0 -0 -0 -0 -0 -0 -0 -0 -0 -0 0 -0 -0 nan
nan -0 -0 -0 -0 -0 -0 -0 -0 -0 -0 0 -0 -0 -0 -0 -0 -0 0 -0 -0 -0 0 -0 -0 -0 -0 -0 -0 -0 0 0 -0 -0 -0 0 -0 -0 0 -0 0 -0 -0 nan
nan -0 -0 -0 -0 -0 -0 -0 -0 -0 -0 0 0 -0 -0 -0 -0 -0 -0 -0 -0 0 -0 -0 -0 -0 0 -0 -0 -0 -0 -0 -0 -0 -0 -0 -0 0 -0 -0 -0 -0 -0 nan
nan -0 -0 -0 -0 -0 -0 -0 -0 -0 -0 -0 -0 -0 -0 -0 0 -0 0 -0 -0 -0 -0 -0 -0 0 -0 0 0 -0 -0 -0 -0 -0 0 0 -0 -0 0 -0 0 -0 -0 nan
nan -0 -0 -0 -0 -0 -0 -0 -0 -0 -0 -0 0 0 -0 -0 0 -0 -0 -0 0 0 0 0 0 0 0 -0 0 -0 -0 0 -0 -0 -0 -0 0 0 0 0 0 0 0 nan
nan 0 -0 -0 -0 -0 -0 -0 -0 -0 -0 -0 0 0 0 0 0 0 0 0 0 0 0 0 0 -0 0 -0 0 0 0 0 -0 -0 0 0 -0 0 0 0 0 0 0 nan
nan 0 -0 -0 -0 -0 -0 -0 -0 -0 -0 -0 0 0 0 0 0 0 0 0 0 0 0 0 -0 0 0 0 -0 0 -0 -0 -0 -0 0 -0 -0 -0 0 0 0 0 0 nan
nan 0 -0 -0 -0 -0 -0 0 0 -0 0 0 -0 0 0 0 0 0 0 0 0 0 -0 -0 0 -0 0 -0 -0 0 -0 -1 -0 0 0 -0 0 0 0 0 0 0 0 nan
nan 0 0 -0 -0 -0 -0 -0 0 -0 -0 0 -0 0 0 0 0 0 0 0 0 0 0 0 0 0 0 -0 -0 -0 -2 -0 0 0 0 0 0 0 0 0 0 0 0 nan
nan 0 -0 -0 -0 -0 -0 0 0 0 0 0 -0 0 0 0 0 0 0 0 0 0 0 0 -0 0 0 -0 -0 -0 0 1 0 1 1 -0 -0 0 0 0 0 -0 -0 nan
nan 0 0 -0 -0 -0 -0 -0 0 0 0 0 -0 -0 -0 0 0 0 0 0 0 0 0 -0 0 -0 -0 -1 -1 -0 0 0 0 0 0 0 0 0 0 0 0 -0 0 nan
nan -0 0 -0 -0 -0 0 0 0 0 0 0 -0 -0 0 0 0 0 0 0 0 0 -0 0 0 -0 -0 -0 -0 -0 0 0 0 0 0 0 -0 -0 0 0 -0 -0 0 nan
nan 0 0 -0 0 0 0 0 0 0 0 0 0 0 0 0 0 -0 -0 -0 0 0 -0 0 -0 -0 -0 -0 -0 0 0 0 0 0 -0 0 0 -0 -0 0 0 0 0 nan
nan 0 0 0 0 0 0 0 0 0 0 0 0 0 -0 -0 -0 -0 -0 0 -0 -0 0 -0 -0 0 -0 -0 0 0 0 0 0 0 0 0 -0 -0 -0 -0 0 0 0 nan
nan 0 0 0 0 0 0 0 0 -0 0 0 0 0 0 0 0 0 0 -0 0 0 -0 -0 -0 -0 -0 -0 0 0 0 0 0 0 -0 -0 -0 -0 -0 -0 0 0 0 nan
nan 0 0 0 -0 -0 -0 0 0 0 0 -0 0 0 0 -0 -0 -0 -0 -0 0 0 -0 -0 -0 -0 -0 0 0 0 0 0 0 0 0 -0 -0 -0 -0 -0 0 0 0 nan
nan 0 0 0 -0 0 0 0 -0 0 0 -0 0 -0 0 -0 -0 0 -0 -0 -0 -0 -0 -0 -0 -1 0 0 0 0 0 0 0 0 0 -0 -0 -0 -0 -0 0 0 0 nan
nan -0 0 0 -0 0 0 0 0 0 0 0 -0 -0 -0 -0 -0 -0 0 -0 -1 -1 -0 -0 -0 0 1 0 0 0 0 0 0 0 -0 -0 -0 -0 -0 -0 -0 0 0 nan
nan 0 0 -0 0 -0 0 0 0 0 0 -0 -0 -0 -0 0 -0 -0 -1 -0 -1 0 -0 -1 0 0 1 0 0 0 0 0 0 0 0 -0 -0 -0 -0 -0 -0 -0 0 nan
nan nan nan nan nan nan nan nan nan nan nan nan nan nan nan nan nan nan nan nan nan nan nan nan nan nan nan nan nan nan nan nan nan nan nan nan nan nan nan nan nan nan nan nan
Wind_Speed
17 18 18 18 17 18 10 2 2 19 8 9 5 3 4 7 4 3 2 4 5 6 16 8 4 7 6 15 16 11 4 4 6 5 3 2 6 11 5 3 4 3 3 3
17 18 18 19 17 17 9 3 3 17 11 4 4 2 3 3 6 7 4 3 3 7 9 6 5 7 13 17 13 10 7 3 6 4 5 6 5 16 11 6 3 4 2 4
16 18 19 18 17 15 8 3 1 8 15 7 3 2 5 7 8 3 6 5 2 13 9 2 7 9 6 17 13 13 4 3 5 4 3 4 10 14 16 3 2 3 6 12
16 17 18 18 16 13 7 5 4 3 3 6 7 1 3 8 8 4 7 1 9 12 5 8 2 11 14 6 10 9 3 1 2 4 5 4 12 14 14 16 9 5 9 12
15 16 18 18 16 11 7 3 4 7 4 2 1 6 5 5 6 2 4 7 13 7 3 5 13 14 5 3 9 7 6 2 2 4 4 4 9 14 12 10 9 9 9 10
13 16 18 18 16 12 6 5 7 4 1 2 1 2 3 4 7 2 4 8 10 6 6 12 18 12 10 5 6 7 7 3 3 2 2 6 2 10 10 6 8 5 3 3
12 14 17 18 18 15 11 6 5 3 3 1 2 1 2 5 4 3 5 8 6 4 17 4 1 4 5 3 4 6 7 3 2 4 4 1 3 4 6 5 6 5 3 4
10 12 15 16 17 16 12 7 3 3 4 2 3 1 3 5 4 1 3 5 7 17 4 1 1 1 2 1 3 6 6 2 1 3 2 2 3 3 4 5 2 4 4 6
7 10 12 14 16 16 11 8 5 3 10 3 4 2 2 3 4 2 3 6 7 9 3 2 5 4 4 4 7 2 4 3 3 2 2 2 3 3 3 3 3 3 4 4
6 8 10 11 13 14 11 8 4 3 6 6 4 2 1 1 1 2 4 8 7 9 3 3 3 3 2 4 7 6 5 4 4 4 2 2 2 4 1 4 3 4 4 4
5 6 8 10 11 13 11 7 5 2 4 10 6 4 3 2 1 2 3 2 3 3 3 2 1 2 2 2 1 3 3 3 3 3 3 1 1 1 3 2 1 3 3 4
5 5 6 8 9 11 11 5 5 3 3 6 8 5 2 2 4 1 2 1 1 1 2 1 1 1 2 0 3 2 2 2 3 3 3 2 2 4 4 3 2 2 3 4
6 5 6 7 8 10 10 3 4 2 5 5 6 4 4 1 2 1 0 1 2 2 2 2 1 3 2 2 2 2 4 4 3 4 2 6 8 8 10 8 6 4 6 6
6 4 5 7 7 9 10 1 3 2 2 3 5 7 4 3 2 2 1 2 2 4 5 2 2 2 3 1 1 3 1 6 3 6 8 10 10 9 9 10 11 11 10 9
5 5 6 7 8 10 8 1 0 5 1 1 3 6 8 5 4 4 3 3 2 4 3 3 2 2 3 1 2 4 9 4 3 4 4 5 7 7 8 10 10 10 11 9
5 5 6 7 8 9 4 0 3 6 2 2 2 3 4 5 6 6 5 5 4 3 3 3 3 4 2 3 3 5 15 10 11 6 6 10 11 12 13 12 9 10 10 10
5 4 6 6 7 2 2 0 5 5 2 2 1 2 4 6 6 6 7 7 4 4 3 3 2 3 4 2 4 6 9 9 11 12 14 14 15 8 7 9 10 12 12 11
5 5 3 6 4 3 3 4 6 4 2 2 1 1 2 3 3 2 3 3 3 3 2 1 2 2 3 5 13 8 7 7 10 8 12 17 15 13 13 13 13 13 12 10
7 1 5 7 2 2 4 7 5 4 2 2 2 1 1 1 1 1 1 2 3 2 2 1 2 2 5 6 4 2 3 6 11 13 13 14 19 18 16 16 16 15 11 11
6 5 1 1 2 6 7 2 1 2 2 2 1 2 0 3 1 1 2 1 0 2 1 2 3 4 16 14 6 3 6 9 12 15 16 14 18 19 19 19 17 17 15 14
4 1 1 3 5 3 1 1 1 2 1 1 2 3 1 2 2 0 2 0 1 2 2 2 2 3 5 9 4 2 5 11 15 15 15 16 17 19 18 18 19 19 19 19
5 3 3 3 1 1 0 1 2 2 1 3 2 2 2 1 1 1 1 0 0 2 4 2 3 4 11 9 5 3 7 12 14 13 14 14 15 14 15 17 18 18 18 18
2 2 2 2 2 1 2 3 2 2 5 6 4 1 1 2 1 3 1 1 2 2 2 3 4 5 13 9 7 5 9 12 14 13 12 11 10 10 11 12 12 13 14 14
2 2 2 2 2 4 3 2 0 2 3 4 2 2 1 2 1 1 2 1 1 1 2 5 3 11 15 11 8 7 9 12 14 13 11 10 10 9 8 8 8 9 11 12
3 3 3 5 5 5 3 4 2 3 3 3 2 3 2 2 1 1 1 1 4 5 5 3 4 5 11 11 8 8 9 11 13 12 10 8 7 6 5 5 6 8 11 13
4 5 2 5 3 4 5 6 5 4 4 2 2 3 1 2 2 2 6 3 6 3 4 5 5 8 10 11 8 8 9 11 12 11 10 9 9 9 9 10 11 13 13 13
4 5 9 10 10 8 4 4 4 7 5 2 3 2 2 4 2 4 5 5 3 4 5 5 6 7 9 10 9 9 9 10 11 11 11 12 12 11 11 10 10 12 12 13
Wind_Direction
8 1 2 1 360 359 359 29 67 8 34 44 46 58 346 329 325 349 316 299 306 324 333 316 313 331 352 350 339 329 335 308 312 37 92 92 35 8 336 300 3 1 54 60
8 3 3 3 1 3 7 76 68 31 52 57 45 30 352 325 335 338 345 321 356 337 324 310 324 331 342 349 347 343 334 7 322 156 176 51 20 8 347 243 278 22 315 118
9 3 5 5 2 4 17 72 71 33 56 70 69 29 9 351 353 327 336 305 311 342 326 285 302 325 337 337 348 359 4 30 23 42 80 341 9 15 15 336 325 84 53 107
11 6 6 7 5 8 22 63 78 66 30 57 77 75 351 354 1 350 353 9 341 339 307 326 318 336 333 328 358 6 19 105 81 126 159 19 32 27 31 40 26 356 116 83
11 9 10 9 11 13 36 86 136 94 94 86 84 13 17 349 343 292 350 343 331 330 281 314 314 323 331 351 331 354 356 310 212 244 220 275 28 22 34 36 30 74 84 68
11 10 14 15 20 29 58 88 124 126 24 93 122 25 318 334 340 237 273 324 325 329 333 310 300 289 266 305 344 341 345 312 278 318 293 286 235 2 15 56 35 356 20 42
11 10 16 16 24 33 48 89 125 127 104 97 72 256 283 316 346 269 305 333 326 325 315 309 131 85 113 140 36 9 330 296 320 307 301 212 63 353 317 17 53 44 27 6
7 8 15 16 24 30 38 58 100 124 110 130 177 253 333 330 344 286 264 321 306 323 319 273 273 201 213 28 3 11 18 291 307 308 354 110 134 20 347 346 47 17 359 349
360 4 12 14 22 25 26 46 75 112 129 185 161 144 14 335 335 308 260 324 345 354 347 26 15 19 325 327 345 23 354 37 320 344 320 10 51 357 306 244 221 8 350 352
348 358 8 11 19 20 19 39 53 105 109 160 142 126 79 344 335 277 314 335 348 9 24 48 14 21 313 338 350 337 341 352 12 360 329 124 89 336 179 246 48 333 332 334
332 347 1 4 14 14 10 32 34 126 119 152 149 128 113 152 15 326 341 251 34 24 64 351 51 302 43 272 321 323 316 325 343 301 291 245 32 225 273 58 293 291 312 322
313 331 350 357 6 9 3 28 37 112 128 152 162 166 152 50 25 345 6 80 142 122 114 188 197 210 195 311 341 192 291 257 303 251 325 358 298 251 242 255 250 243 276 300
303 315 334 348 358 2 358 16 29 123 135 146 175 205 210 255 350 7 259 241 206 179 164 154 71 235 195 270 246 282 205 173 242 315 167 255 270 275 252 256 258 290 295 294
294 303 322 335 347 351 347 358 34 54 155 166 200 198 206 235 261 240 274 281 227 187 175 178 224 258 204 236 29 258 20 162 231 252 270 277 275 258 272 269 270 276 291 292
291 275 316 330 338 339 337 220 254 14 244 186 164 198 228 241 237 239 257 264 255 200 174 192 222 136 183 127 265 247 185 194 224 285 224 244 273 274 271 279 280 280 282 284
299 293 306 318 327 333 348 52 241 342 336 203 174 207 206 228 233 235 254 252 247 223 225 209 217 196 189 230 245 250 211 228 253 256 271 255 271 276 277 274 275 280 284 287
302 308 309 317 329 355 11 320 307 318 324 211 130 214 222 231 233 238 243 241 243 235 240 218 179 187 215 260 245 225 217 251 270 273 261 268 271 266 257 265 270 275 282 281
319 305 308 327 330 306 312 319 317 313 291 227 150 197 212 218 225 220 216 219 212 228 239 220 205 183 216 250 243 232 229 274 288 288 269 255 262 263 266 270 270 272 274 276
323 20 307 305 291 297 304 310 287 282 249 239 196 234 310 321 282 266 228 216 224 248 237 168 236 183 232 238 271 201 216 273 287 292 282 265 258 264 261 259 258 261 267 272
338 324 349 255 268 303 310 292 268 233 237 227 212 209 258 331 338 104 303 14 62 247 108 301 226 255 258 268 244 228 298 307 306 296 288 280 269 268 267 256 255 257 265 273
319 308 241 269 302 299 278 271 292 300 276 234 201 209 300 330 264 159 39 106 7 258 111 274 247 262 225 188 206 260 321 324 317 306 295 287 277 273 269 262 258 257 262 269
310 260 264 273 264 260 313 262 272 207 270 196 189 232 246 244 175 148 24 230 14 256 341 257 252 246 194 202 215 277 319 319 320 314 310 302 289 282 274 269 266 265 264 266
305 187 207 221 213 328 190 308 280 272 191 189 192 228 207 138 134 85 154 215 223 307 237 243 242 241 200 219 241 278 307 318 323 321 313 309 305 295 283 277 272 266 261 266
218 195 286 203 224 241 197 221 130 209 203 187 190 150 184 157 113 111 249 73 278 248 249 239 240 242 208 227 241 275 307 322 327 324 319 315 309 305 299 290 279 270 267 269
223 192 238 218 261 257 243 238 233 237 201 189 147 113 158 118 121 143 89 238 249 225 234 230 256 237 217 231 245 279 308 321 325 323 322 322 324 323 314 295 282 277 279 281
223 227 239 232 271 254 239 235 228 209 185 168 141 112 117 224 180 195 220 195 230 238 219 245 274 253 247 239 252 280 305 316 321 319 313 310 307 305 301 298 295 292 290 287
233 237 237 242 272 267 251 214 213 177 161 173 149 217 239 113 234 244 198 218 231 224 247 270 286 283 259 247 257 283 304 312 317 314 308 304 304 303 302 299 295 295 294 291
Height
1555 1552 1548 1545 1541 1536 1533 1533 1534 1534 1529 1530 1539 1543 1548 1547 1543 1543 1542 1541 1539 1536 1534 1528 1526 1524 1523 1522 1518 1510 1506 1505 1499 1505 1510 1511 1508 1507 1502 1485 1462 1461 1454 1495
1555 1552 1548 1545 1541 1536 1533 1534 1536 1536 1530 1535 1543 1549 1549 1547 1545 1544 1542 1541 1541 1540 1536 1534 1526 1526 1524 1523 1519 1513 1508 1504 1495 1498 1508 1504 1508 1506 1504 1496 1493 1486 1455 1493
1554 1552 1548 1545 1540 1536 1534 1535 1536 1539 1539 1547 1548 1550 1550 1547 1547 1546 1545 1542 1541 1538 1534 1534 1530 1527 1524 1523 1520 1515 1512 1511 1507 1507 1519 1517 1513 1508 1505 1495 1479 1491 1492 1500
1554 1552 1548 1545 1540 1536 1535 1536 1543 1544 1546 1549 1552 1553 1553 1550 1549 1548 1545 1541 1541 1541 1538 1532 1530 1527 1525 1522 1522 1518 1515 1517 1516 1518 1516 1515 1513 1512 1511 1508 1504 1494 1507 1508
1555 1552 1548 1545 1540 1537 1536 1538 1541 1546 1551 1552 1552 1553 1552 1552 1550 1550 1546 1545 1542 1540 1539 1537 1534 1534 1529 1526 1523 1520 1519 1514 1515 1514 1512 1511 1513 1512 1511 1513 1514 1513 1513 1515
1554 1552 1549 1546 1541 1538 1536 1538 1541 1543 1552 1553 1551 1555 1553 1551 1550 1548 1547 1545 1542 1538 1537 1537 1535 1533 1532 1532 1530 1524 1521 1517 1510 1505 1510 1507 1509 1520 1517 1519 1520 1519 1514 1523
1554 1552 1549 1546 1542 1540 1539 1539 1541 1542 1551 1551 1552 1554 1553 1551 1549 1548 1545 1544 1541 1540 1536 1533 1533 1532 1531 1531 1531 1530 1524 1519 1516 1507 1508 1504 1523 1523 1521 1522 1524 1525 1524 1524
1554 1552 1549 1547 1544 1541 1540 1540 1541 1541 1549 1551 1552 1552 1551 1549 1548 1546 1545 1543 1542 1537 1534 1531 1530 1527 1529 1528 1529 1528 1529 1525 1519 1512 1510 1522 1523 1526 1526 1525 1521 1527 1526 1521
1554 1552 1550 1548 1545 1543 1541 1541 1540 1541 1544 1551 1549 1550 1550 1549 1547 1544 1543 1542 1539 1536 1534 1531 1533 1531 1540 1528 1526 1528 1527 1526 1519 1516 1514 1511 1525 1528 1529 1529 1516 1526 1525 1525
1553 1552 1550 1548 1546 1544 1543 1541 1541 1541 1543 1547 1549 1549 1550 1549 1548 1547 1545 1543 1539 1537 1535 1535 1537 1535 1546 1533 1535 1534 1528 1528 1525 1518 1516 1518 1526 1528 1529 1520 1525 1525 1525 1525
1552 1551 1550 1548 1546 1544 1544 1542 1541 1541 1542 1546 1547 1548 1548 1547 1547 1546 1545 1544 1541 1540 1539 1539 1542 1539 1545 1545 1545 1545 1541 1537 1524 1521 1520 1519 1527 1527 1524 1526 1526 1525 1524 1522
1551 1550 1549 1548 1546 1544 1543 1542 1541 1541 1542 1545 1547 1547 1547 1547 1546 1545 1545 1545 1544 1544 1544 1548 1546 1539 1546 1548 1531 1548 1534 1540 1534 1533 1520 1525 1525 1526 1525 1525 1525 1524 1523 1522
1550 1549 1548 1546 1545 1544 1543 1542 1542 1541 1542 1546 1546 1546 1547 1546 1545 1545 1546 1544 1543 1543 1544 1545 1545 1542 1543 1534 1532 1539 1539 1541 1538 1535 1525 1523 1522 1522 1522 1522 1522 1522 1521 1520
1548 1547 1546 1545 1544 1543 1542 1541 1541 1541 1541 1543 1545 1544 1545 1545 1545 1544 1543 1543 1542 1542 1542 1543 1542 1539 1543 1538 1540 1539 1536 1539 1533 1528 1522 1521 1519 1519 1519 1519 1518 1518 1518 1517
1546 1545 1544 1544 1543 1542 1541 1540 1541 1540 1543 1541 1542 1543 1543 1543 1543 1542 1541 1541 1541 1541 1541 1541 1539 1541 1542 1543 1543 1533 1529 1526 1525 1517 1518 1518 1517 1517 1516 1515 1515 1514 1513 1513
1545 1544 1544 1543 1542 1540 1540 1540 1541 1540 1539 1540 1541 1542 1541 1541 1541 1541 1540 1539 1539 1540 1538 1537 1537 1537 1539 1535 1528 1520 1518 1518 1518 1517 1516 1515 1514 1513 1513 1512 1512 1511 1510 1509
1543 1542 1542 1542 1541 1540 1541 1541 1541 1539 1539 1539 1540 1539 1539 1539 1539 1538 1538 1538 1538 1539 1537 1536 1536 1536 1538 1535 1523 1513 1514 1515 1514 1513 1512 1511 1510 1509 1509 1509 1509 1508 1507 1507
1542 1541 1540 1540 1540 1539 1539 1538 1538 1538 1538 1538 1538 1537 1538 1537 1536 1537 1536 1537 1536 1536 1535 1535 1535 1535 1535 1526 1510 1510 1511 1511 1510 1509 1507 1507 1506 1506 1505 1505 1505 1504 1503 1503
1541 1540 1540 1539 1539 1539 1538 1536 1536 1536 1540 1536 1536 1534 1532 1535 1534 1534 1535 1534 1534 1535 1534 1534 1535 1530 1522 1508 1508 1508 1508 1508 1506 1505 1503 1502 1501 1501 1501 1500 1500 1499 1499 1499
1539 1538 1539 1538 1538 1537 1537 1535 1536 1535 1535 1534 1534 1534 1534 1536 1533 1533 1535 1534 1534 1530 1533 1533 1530 1517 1505 1506 1505 1506 1505 1504 1502 1500 1498 1497 1495 1495 1495 1495 1495 1495 1495 1495
1539 1538 1537 1537 1536 1536 1535 1535 1535 1535 1534 1533 1533 1533 1534 1533 1534 1533 1535 1534 1535 1530 1532 1530 1521 1511 1501 1501 1501 1501 1500 1500 1498 1495 1493 1492 1491 1489 1489 1489 1489 1490 1490 1489
1538 1536 1536 1536 1536 1536 1537 1535 1536 1534 1530 1532 1532 1533 1532 1532 1533 1533 1535 1534 1536 1526 1534 1530 1515 1498 1495 1497 1498 1498 1497 1496 1493 1490 1488 1486 1484 1483 1483 1482 1482 1483 1483 1483
1534 1535 1535 1535 1536 1534 1530 1529 1526 1528 1527 1528 1529 1532 1531 1531 1533 1534 1535 1533 1530 1535 1531 1515 1499 1491 1492 1494 1494 1494 1493 1491 1489 1486 1484 1482 1480 1478 1477 1477 1476 1477 1477 1477
1533 1533 1534 1534 1532 1529 1523 1523 1523 1525 1525 1527 1528 1529 1532 1530 1532 1534 1530 1536 1536 1526 1524 1503 1490 1486 1489 1490 1490 1491 1490 1488 1485 1482 1480 1478 1476 1475 1474 1473 1472 1472 1472 1472
1532 1532 1530 1529 1523 1522 1521 1522 1523 1523 1524 1525 1526 1528 1529 1530 1532 1533 1535 1532 1521 1511 1495 1489 1484 1485 1486 1486 1487 1487 1486 1484 1481 1479 1477 1475 1473 1472 1471 1470 1469 1469 1468 1468
1528 1526 1523 1521 1522 1519 1519 1518 1519 1520 1522 1523 1525 1526 1528 1527 1528 1530 1520 1516 1502 1485 1486 1482 1483 1483 1483 1483 1483 1483 1481 1480 1478 1476 1474 1472 1471 1469 1468 1467 1466 1465 1463 1462
1523 1518 1517 1518 1517 1516 1516 1516 1517 1518 1520 1521 1523 1522 1515 1527 1525 1519 1512 1499 1482 1480 1479 1479 1480 1479 1479 1479 1480 1479 1478 1476 1474 1472 1471 1469 1467 1465 1464 1463 1461 1460 1459 1457